RH
56 62 65 66 72 78 78 75 73 72 70 64 60 56 54 53 51 49 47 45 44 44 48 50 49 49 50 52 54 54 55 55 54 53 54 53 52 53 54 55 56 57
56 61 64 65 71 76 75 73 71 71 70 65 60 56 55 54 53 52 50 47 44 43 45 48 49 49 53 55 55 56 58 58 55 54 55 53 51 53 54 54 55 55
53 58 62 64 71 77 75 73 73 72 70 66 62 59 56 54 53 53 52 49 47 44 43 47 48 50 54 56 56 57 59 60 57 55 56 56 54 54 53 52 53 55
50 54 60 63 69 74 74 75 76 74 70 66 62 60 57 55 53 52 52 51 49 45 44 46 48 49 51 52 55 58 58 58 55 54 56 56 54 54 54 52 54 55
48 50 57 64 67 69 73 74 74 73 69 64 61 60 59 56 54 51 50 50 49 45 45 47 48 47 45 47 53 56 56 54 54 54 52 50 50 53 54 52 52 52
47 45 53 63 65 66 70 72 73 73 67 62 61 61 61 63 61 55 50 50 50 47 47 49 50 50 47 47 51 54 55 54 54 53 49 49 52 54 53 50 49 50
46 43 49 59 62 63 67 70 74 73 65 59 61 62 63 64 63 58 53 53 51 49 51 52 53 54 51 48 49 51 52 53 51 51 51 52 54 55 55 52 49 49
48 47 49 57 61 61 64 69 73 70 62 59 61 62 62 60 58 57 56 57 57 54 55 54 53 52 49 49 50 51 52 49 47 52 56 55 57 59 58 57 55 50
52 49 51 58 63 63 64 67 71 68 62 59 60 60 58 58 62 63 62 64 65 60 56 53 51 50 51 51 52 53 52 47 48 57 60 56 58 58 55 56 58 54
57 53 53 58 63 66 67 68 69 67 64 61 61 58 56 61 68 69 67 67 65 60 58 54 51 53 56 57 57 54 50 46 51 60 59 54 53 53 50 51 55 58
62 58 58 59 62 68 70 69 70 69 65 64 64 60 59 64 69 69 68 67 62 59 59 57 54 55 58 59 58 54 50 50 53 56 55 52 50 49 49 49 50 58
65 63 64 62 64 70 74 73 70 67 65 66 65 63 63 66 67 66 65 63 59 58 59 59 58 58 57 58 58 52 50 52 53 53 53 51 50 48 49 50 48 53
71 72 72 72 72 73 75 72 67 64 65 67 67 66 67 68 67 64 62 62 61 60 60 60 60 58 56 56 56 50 48 52 53 52 53 52 49 50 51 51 49 49
76 75 75 78 80 77 74 71 66 65 68 69 68 70 72 70 67 64 62 63 64 61 60 59 59 58 56 54 52 46 46 51 52 53 56 55 52 51 52 50 47 47
76 74 73 76 79 78 77 73 69 70 72 71 69 71 73 73 70 67 65 66 64 62 60 60 59 60 58 53 48 45 45 48 51 53 56 57 54 54 53 49 47 47
77 75 76 75 76 80 81 76 73 74 75 73 73 74 76 77 74 70 68 65 63 61 62 61 60 60 58 53 48 47 49 49 49 50 52 53 52 52 50 47 45 45
77 76 78 80 79 82 83 79 78 79 79 79 80 79 78 78 77 74 68 63 61 62 63 62 60 59 59 57 53 51 52 51 47 46 47 49 49 48 47 46 45 43
77 74 76 83 85 85 83 81 81 84 85 85 84 83 81 80 78 73 66 62 61 63 63 63 63 63 63 62 58 53 51 51 47 44 44 47 49 48 48 49 49 47
80 75 78 86 90 88 83 81 82 86 89 88 85 85 85 82 77 72 69 68 67 64 64 64 64 64 65 65 62 56 52 50 47 44 44 45 48 48 48 51 52 51
84 84 88 91 89 85 82 82 86 90 90 87 85 85 85 83 80 77 76 75 71 67 65 63 60 60 61 62 62 60 57 51 46 45 44 43 43 45 45 48 49 50
88 90 94 93 88 86 85 85 87 89 88 87 86 87 87 86 85 84 83 80 77 74 71 68 66 65 63 61 60 60 57 52 49 50 47 43 42 43 44 44 46 48
94 94 96 96 95 92 89 88 88 88 89 87 87 88 88 88 88 88 86 84 83 80 78 78 78 78 76 73 69 65 58 52 52 54 51 47 46 46 44 44 45 48
99 98 97 98 97 94 92 92 91 91 92 92 90 90 90 90 90 90 88 87 86 85 85 86 86 86 85 83 81 77 67 56 52 55 54 51 51 49 46 46 46 47
100 98 97 97 96 95 94 95 93 92 93 93 91 90 90 90 91 90 90 90 89 88 88 88 89 90 88 86 87 85 77 63 56 57 57 56 57 58 56 55 54 53
100 98 97 97 96 96 96 96 95 94 93 93 92 92 92 92 93 92 93 92 91 90 90 90 91 90 89 89 89 89 84 74 64 60 60 60 63 65 64 63 63 62
99 98 98 97 96 96 96 96 95 94 93 94 95 95 94 94 94 94 94 94 91 90 89 89 89 88 88 91 92 91 89 82 71 63 61 63 65 65 64 66 71 71